Estación de Tamelaike INIA

Ultimos registro cada 15 minutos 57
Estación Fecha / Hora Temperatura Humedad Lluvia Velocidad Dirección Radiación Presion
57 Tamelaike INIA 09-05-2026 14:00 8,4 52,6 0 12,2 274 227 1005
56 Tamelaike INIA 09-05-2026 13:45 8,2 53 0 11,6 274 273 1006
55 Tamelaike INIA 09-05-2026 13:30 8 54,8 0 11,7 271 232 1007
54 Tamelaike INIA 09-05-2026 13:15 7,4 56 0 9,2 276 151 1025
53 Tamelaike INIA 09-05-2026 13:00 7,3 56,4 0 6,8 284 167 1007
52 Tamelaike INIA 09-05-2026 12:45 6,8 57,8 0 4,3 282 172 1007
51 Tamelaike INIA 09-05-2026 12:30 6,4 59,7 0 3,4 288 88 1008
50 Tamelaike INIA 09-05-2026 12:15 6,4 60 0 5,1 279 60 1007
49 Tamelaike INIA 09-05-2026 12:00 6,2 60 0 3,6 292 68 1008
48 Tamelaike INIA 09-05-2026 11:45 5,8 62,3 0 3 305 78 1027
47 Tamelaike INIA 09-05-2026 11:30 5,1 65,6 0 3,2 270 66 1011
46 Tamelaike INIA 09-05-2026 11:15 5 65,2 0 2,8 266 57 1009
45 Tamelaike INIA 09-05-2026 11:00 4,2 65,8 0 0,2 273 75 1010
44 Tamelaike INIA 09-05-2026 10:45 3,9 74,8 0 0,2 250 55 1028
43 Tamelaike INIA 09-05-2026 10:30 3,4 72,6 0 2,5 274 55 1012
42 Tamelaike INIA 09-05-2026 10:15 3 74 0 2,8 266 53 1012
41 Tamelaike INIA 09-05-2026 10:00 2,7 75,5 0 3,7 264 48 1009
40 Tamelaike INIA 09-05-2026 09:45 2,6 77,6 0 3,8 261 33 1011
39 Tamelaike INIA 09-05-2026 09:30 2,5 75,1 0 4,6 261 27 1010
38 Tamelaike INIA 09-05-2026 09:15 2,7 74,9 0 4,6 261 27 1010
37 Tamelaike INIA 09-05-2026 09:00 1,8 75,8 0 5,2 270 20 1011
36 Tamelaike INIA 09-05-2026 08:45 1,8 79,7 0 3,5 273 13 1010
35 Tamelaike INIA 09-05-2026 08:30 1,4 83,8 0 3,1 281 9 1010
34 Tamelaike INIA 09-05-2026 08:15 0,7 84,7 0 4,8 267 5 1010
33 Tamelaike INIA 09-05-2026 08:00 0,5 85,9 0 4,7 261 4 1010
32 Tamelaike INIA 09-05-2026 07:45 -0,8 97,2 0 0,8 282 1 1011
31 Tamelaike INIA 09-05-2026 07:30 -1,2 97,8 0 0 0 0 1011
30 Tamelaike INIA 09-05-2026 07:15 -1,4 97,9 0 0 0 0 1011
29 Tamelaike INIA 09-05-2026 07:00 -1,7 97,8 0 0 0 0 1011
28 Tamelaike INIA 09-05-2026 06:45 -1,4 97,3 0 0 0 0 1011
27 Tamelaike INIA 09-05-2026 06:30 -1,4 97,7 0 0 0 0 1011
26 Tamelaike INIA 09-05-2026 06:15 -1,3 97,3 0 0 0 0 1012
25 Tamelaike INIA 09-05-2026 06:00 -1,3 97 0 0 0 0 1012
24 Tamelaike INIA 09-05-2026 05:45 -1,5 96,9 0 0 0 0 1011
23 Tamelaike INIA 09-05-2026 05:30 -1,5 95,9 0 0 0 0 1013
22 Tamelaike INIA 09-05-2026 05:15 -1,8 96,3 0 0,1 83 0 1013
21 Tamelaike INIA 09-05-2026 05:00 -1,7 94,9 0 0 0 0 1013
20 Tamelaike INIA 09-05-2026 04:45 -1 94,4 0 1,3 318 0 1013
19 Tamelaike INIA 09-05-2026 04:30 -0,7 94,3 0 1,1 243 0 1013
18 Tamelaike INIA 09-05-2026 04:15 -1,4 93,6 0 0 0 0 1013
17 Tamelaike INIA 09-05-2026 04:00 -1,8 92,3 0 0 0 0 1014
16 Tamelaike INIA 09-05-2026 03:45 -2,1 94,1 0 0 0 0 1014
15 Tamelaike INIA 09-05-2026 03:30 -1,7 92,2 0 0 0 0 1014
14 Tamelaike INIA 09-05-2026 03:15 -0,9 91,2 0 0 0 0 1015
13 Tamelaike INIA 09-05-2026 03:00 -0,4 90,9 0 0 0 0 1014
12 Tamelaike INIA 09-05-2026 02:45 -0,8 92,4 0 0 0 0 1015
11 Tamelaike INIA 09-05-2026 02:30 -0,5 91,1 0 0 0 0 1015
10 Tamelaike INIA 09-05-2026 02:15 -0,7 91,4 0 0 0 0 1015
9 Tamelaike INIA 09-05-2026 02:00 -0,8 90,7 0 0 0 0 1015
8 Tamelaike INIA 09-05-2026 01:45 -0,2 89,5 0 0 0 0 1016
7 Tamelaike INIA 09-05-2026 01:30 -0,4 90,7 0 0 0 0 1016
6 Tamelaike INIA 09-05-2026 01:15 0 87,6 0 0 158 0 1015
5 Tamelaike INIA 09-05-2026 01:00 -0,4 89,8 0 0 0 0 1016
4 Tamelaike INIA 09-05-2026 00:45 -1 90,3 0 0,5 120 0 1035
3 Tamelaike INIA 09-05-2026 00:30 -0,9 90,1 0 1,4 114 0 1016
2 Tamelaike INIA 09-05-2026 00:15 0,3 83,4 0 0 0 0 1016
1 Tamelaike INIA 09-05-2026 00:00 -0,2 87,6 0 0 0 0 1017